This demonstration page uses our WeatherBlox Daily Observations layout. Learn more.

Left ArrowRight Arrow

38.20091, -84.87328

Hourly Observations for May 31, 2020

Temp ( °F °C ) Dew Point ( °F °C ) Humidity (%) Winds ( mph kmh ) Pressure ( in mb ) Visibility ( mi km ) Precip ( " mm )
12:53 am 00:53 Clear 57 13.9 51 10.6 81 81 Calm 30.14 1021 10 16 0.00 0.00
1:53 am 01:53 Clear 55 12.8 50 10 83 83 Calm 30.15 1021 10 16 0.00 0.00
2:53 am 02:53 Clear 54 12.2 49 9.4 83 83 Calm 30.15 1021 10 16 0.00 0.00
3:53 am 03:53 Clear 58 14.4 48 8.9 70 70 NNE 3 6 30.16 1021 10 16 0.00 0.00
4:53 am 04:53 Clear 57 13.9 47 8.3 69 69 N 3 6 30.17 1022 10 16 0.00 0.00
5:53 am 05:53 Mostly Clear 57 13.9 47 8.3 69 69 N 5 7 30.19 1022 10 16 0.00 0.00
6:53 am 06:53 Sunny 57 13.9 46 7.8 67 67 N 5 7 30.22 1023 10 16 0.00 0.00
7:53 am 07:53 Sunny 60 15.6 46 7.8 60 60 NNE 5 7 30.24 1024 10 16 0.00 0.00
8:53 am 08:53 Sunny 63 17.2 46 7.8 54 54 NNE 8 13 30.26 1025 10 16 0.00 0.00
9:53 am 09:53 Sunny 66 18.9 44 6.7 45 45 NNE 9 15 30.27 1025 10 16 0.00 0.00
10:53 am 10:53 Sunny 68 20 41 5 38 38 N 12 19 30.27 1025 10 16 0.00 0.00
11:53 am 11:53 Sunny 70 21.1 42 5.6 37 37 N 9 15 30.26 1025 10 16 0.00 0.00
12:53 pm 12:53 Sunny 71 21.7 44 6.7 38 38 undefined N/A 30.27 1025 10 16 0.00 0.00
1:53 pm 13:53 Sunny 72 22.2 42 5.6 34 34 N 8 13 30.26 1025 10 16 0.00 0.00
2:53 pm 14:53 Sunny 72 22.2 44 6.7 37 37 VRB 3 6 30.24 1024 10 16 0.00 0.00
3:53 pm 15:53 Sunny 74 23.3 43 6.1 33 33 N 7 11 30.23 1024 10 16 0.00 0.00
4:53 pm 16:53 Sunny 74 23.3 43 6.1 33 33 NNW 8 13 30.22 1023 10 16 0.00 0.00
5:53 pm 17:53 Sunny 74 23.3 41 5 31 31 NNW 8 13 30.21 1023 10 16 0.00 0.00
6:53 pm 18:53 Sunny 74 23.3 40 4.4 29 29 N 7 11 30.20 1023 10 16 0.00 0.00
7:53 pm 19:53 Sunny 72 22.2 40 4.4 31 31 N 7 11 30.21 1023 10 16 0.00 0.00
8:53 pm 20:53 Sunny 68 20 40 4.4 36 36 N 5 7 30.22 1023 10 16 0.00 0.00
9:53 pm 21:53 Clear 59 15 45 7.2 60 60 Calm 30.24 1024 10 16 0.00 0.00
10:53 pm 22:53 Clear 58 14.4 45 7.2 62 62 N 3 6 30.26 1025 10 16 0.00 0.00
11:53 pm 23:53 Clear 55 12.8 44 6.7 67 67 Calm 30.25 1025 10 16 0.00 0.00

Powered by AerisWeather